sat.trackr.live / text

‹ back to catalog

STARLINK-35735

NORAD 66231 · 2025-244AB

PAYLOAD ACTIVE UNKNOWN

§ Identity

Operator
Country
US
Launch date
2025-10-28
Launch site
AFWTR
Launch vehicle
Mass (kg)
RCS (m²)

Purposes: comms

External: N2YO · Heavens-Above · Gunter

§ Orbital elements

Epoch: 2026-09-20T20:21:44.894592Z

Period
93.85 min
Inclination
53.1595°
Eccentricity
0.0000823
Mean motion
15.34428327 rev/d
Perigee alt
462.1 km
Apogee alt
463.2 km
Semi-major
6,840.8 km
B*
5.3488e-4
RAAN
40.2626°
Arg perigee
84.5055°
Mean anomaly
275.6041°
Rev number
5,158

§ Raw data

STARLINK-357351 66231U 25244AB  26263.84843628  .00017755  00000+0  53488-3 0  99922 66231  53.1595  40.2626 0000823  84.5055 275.6041 15.34428327 51581

JSON: /api/v1/satellites/66231 · /tle

For live sub-satellite position, see the globe view (requires WebGL).

§ Visibility from observer

Set your observer location to see the next 7 days of passes ≥ 10°. The values pass through the URL so the page stays shareable.

No JS? Fill the form by hand. The geolocation button needs JavaScript.